13-05-2022, 00:00:04,    242,    0.0,    9.1,   0.00,   0.00, 1014.8,   75.1, -999.0
13-05-2022, 00:00:14,    243,    0.0,    9.1,   0.00,   0.00, 1014.8,   75.2, -999.0
13-05-2022, 00:00:24,    243,    0.0,    9.2,   0.00,   0.00, 1014.8,   75.2, -999.0
13-05-2022, 00:00:34,    242,    0.0,    9.2,   0.00,   0.00, 1014.8,   75.3, -999.0
13-05-2022, 00:00:44,    220,    0.3,    9.2,   0.00,   0.00, 1014.8,   75.4, -999.0
13-05-2022, 00:00:54,    220,    0.9,    9.3,   0.00,   0.00, 1014.9,   75.5, -999.0
13-05-2022, 00:01:04,    220,    0.7,    9.3,   0.00,   0.00, 1014.9,   75.5, -999.0
13-05-2022, 00:01:14,    221,    0.0,    9.2,   0.00,   0.00, 1014.7,   75.1, -999.0
13-05-2022, 00:01:24,    220,    0.0,    9.2,   0.00,   0.00, 1014.7,   75.0, -999.0
13-05-2022, 00:01:34,    221,    0.0,    9.2,   0.00,   0.00, 1014.8,   75.0, -999.0
13-05-2022, 00:01:44,    253,    2.9,    9.3,   0.00,   0.00, 1014.9,   75.4, -999.0
13-05-2022, 00:01:53,    243,    2.9,    9.3,   0.00,   0.00, 1014.9,   75.4, -999.0
13-05-2022, 00:02:04,    223,    2.0,    9.2,   0.00,   0.00, 1014.9,   75.3, -999.0
13-05-2022, 00:02:13,    231,    1.9,    9.4,   0.00,   0.00, 1014.9,   75.3, -999.0
13-05-2022, 00:02:23,    235,    1.6,    9.3,   0.00,   0.00, 1014.9,   75.5, -999.0
13-05-2022, 00:02:33,    235,    0.2,    9.2,   0.00,   0.00, 1014.8,   75.2, -999.0
13-05-2022, 00:02:43,    235,    0.0,    9.2,   0.00,   0.00, 1014.7,   75.0, -999.0
13-05-2022, 00:02:53,    237,    0.0,    9.2,   0.00,   0.00, 1014.8,   75.2, -999.0
13-05-2022, 00:03:03,    236,    0.1,    9.2,   0.00,   0.00, 1014.8,   75.2, -999.0
13-05-2022, 00:03:13,    236,    0.0,    9.2,   0.00,   0.00, 1014.8,   75.0, -999.0
13-05-2022, 00:03:23,    212,    0.4,    9.2,   0.00,   0.00, 1014.8,   75.4, -999.0
13-05-2022, 00:03:33,    212,    0.0,    9.2,   0.00,   0.00, 1014.7,   75.2, -999.0
13-05-2022, 00:03:43,    211,    0.0,    9.1,   0.00,   0.00, 1014.8,   75.0, -999.0
13-05-2022, 00:03:53,    212,    0.0,    9.2,   0.00,   0.00, 1014.8,   74.9, -999.0
13-05-2022, 00:04:03,    213,    0.0,    9.1,   0.00,   0.00, 1014.7,   75.1, -999.0
13-05-2022, 00:04:13,    212,    0.0,    9.1,   0.00,   0.00, 1014.7,   75.1, -999.0
13-05-2022, 00:04:23,    289,    0.5,    9.2,   0.00,   0.00, 1014.8,   75.2, -999.0
13-05-2022, 00:04:33,    290,    0.0,    9.1,   0.00,   0.00, 1014.7,   74.9, -999.0
13-05-2022, 00:04:43,    290,    0.0,    9.1,   0.00,   0.00, 1014.8,   74.9, -999.0
13-05-2022, 00:04:53,    280,    0.0,    9.1,   0.00,   0.00, 1014.8,   75.0, -999.0
13-05-2022, 00:05:02,    281,    0.0,    9.1,   0.00,   0.00, 1014.8,   75.0, -999.0
13-05-2022, 00:05:13,    280,    0.0,    9.1,   0.00,   0.00, 1014.7,   75.0, -999.0
13-05-2022, 00:05:23,    270,    1.3,    9.2,   0.00,   0.00, 1014.9,   75.4, -999.0
13-05-2022, 00:05:32,    199,    1.5,    9.2,   0.00,   0.00, 1014.9,   75.4, -999.0
13-05-2022, 00:05:43,    202,    0.9,    9.2,   0.00,   0.00, 1014.9,   75.4, -999.0
13-05-2022, 00:05:52,    236,    0.7,    9.2,   0.00,   0.00, 1014.9,   75.3, -999.0
13-05-2022, 00:06:02,    237,    1.2,    9.2,   0.00,   0.00, 1014.9,   75.4, -999.0
13-05-2022, 00:06:12,    237,    0.4,    9.2,   0.00,   0.00, 1014.9,   75.3, -999.0
13-05-2022, 00:06:22,    241,    0.1,    9.2,   0.00,   0.00, 1014.8,   74.9, -999.0
13-05-2022, 00:06:32,    250,    0.8,    9.2,   0.00,   0.00, 1014.8,   75.2, -999.0
13-05-2022, 00:06:42,    250,    0.6,    9.1,   0.00,   0.00, 1014.9,   75.2, -999.0
13-05-2022, 00:06:52,    180,    0.0,    9.1,   0.00,   0.00, 1014.8,   75.0, -999.0
13-05-2022, 00:07:02,    180,    0.3,    9.1,   0.00,   0.00, 1014.9,   75.2, -999.0
13-05-2022, 00:07:12,    198,    0.2,    9.1,   0.00,   0.00, 1014.8,   75.3, -999.0
13-05-2022, 00:07:22,    206,    0.1,    9.2,   0.00,   0.00, 1014.8,   75.1, -999.0
13-05-2022, 00:07:32,    206,    0.0,    9.0,   0.00,   0.00, 1014.8,   75.1, -999.0
13-05-2022, 00:07:42,    206,    0.0,    9.1,   0.00,   0.00, 1014.7,   74.9, -999.0
13-05-2022, 00:07:52,    206,    0.0,    9.1,   0.00,   0.00, 1014.7,   75.0, -999.0
13-05-2022, 00:08:02,    207,    0.0,    9.1,   0.00,   0.00, 1014.7,   75.1, -999.0
13-05-2022, 00:08:12,    210,    0.4,    9.2,   0.00,   0.00, 1014.9,   75.4, -999.0
13-05-2022, 00:08:22,    212,    0.0,    9.1,   0.00,   0.00, 1014.8,   75.2, -999.0
13-05-2022, 00:08:32,    210,    0.1,    9.1,   0.00,   0.00, 1014.8,   75.1, -999.0
13-05-2022, 00:08:41,    221,    0.8,    9.2,   0.00,   0.00, 1014.9,   75.5, -999.0
13-05-2022, 00:08:52,    220,    0.0,    9.1,   0.00,   0.00, 1014.8,   75.0, -999.0
13-05-2022, 00:09:01,    220,    0.0,    9.0,   0.00,   0.00, 1014.7,   75.1, -999.0
13-05-2022, 00:09:11,    220,    0.0,    9.1,   0.00,   0.00, 1014.7,   75.1, -999.0
13-05-2022, 00:09:21,    220,    0.0,    9.1,   0.00,   0.00, 1014.7,   75.1, -999.0
13-05-2022, 00:09:31,    220,    0.0,    9.1,   0.00,   0.00, 1014.7,   75.1, -999.0
13-05-2022, 00:09:41,    220,    0.0,    9.1,   0.00,   0.00, 1014.8,   75.2, -999.0
13-05-2022, 00:09:51,    220,    0.0,    9.1,   0.00,   0.00, 1014.8,   75.1, -999.0
13-05-2022, 00:10:01,    220,    0.0,    9.1,   0.00,   0.00, 1014.7,   75.1, -999.0
13-05-2022, 00:10:11,    221,    0.0,    9.1,   0.00,   0.00, 1014.8,   75.1, -999.0
13-05-2022, 00:10:21,    221,    0.0,    9.1,   0.00,   0.00, 1014.8,   75.1, -999.0
13-05-2022, 00:10:31,    232,    0.4,    9.2,   0.00,   0.00, 1014.9,   75.4, -999.0
13-05-2022, 00:10:41,    232,    0.2,    9.2,   0.00,   0.00, 1014.9,   75.3, -999.0
13-05-2022, 00:10:51,    232,    0.0,    9.1,   0.00,   0.00, 1014.8,   75.1, -999.0
13-05-2022, 00:11:01,    232,    0.0,    9.1,   0.00,   0.00, 1014.8,   75.1, -999.0
13-05-2022, 00:11:11,    232,    0.0,    9.1,   0.00,   0.00, 1014.9,   75.0, -999.0
13-05-2022, 00:11:21,    231,    0.0,    9.1,   0.00,   0.00, 1014.9,   75.0, -999.0
13-05-2022, 00:11:31,    232,    0.0,    9.1,   0.00,   0.00, 1014.9,   75.1, -999.0
13-05-2022, 00:11:41,    232,    0.0,    9.1,   0.00,   0.00, 1014.9,   75.1, -999.0
13-05-2022, 00:11:50,    232,    0.0,    9.1,   0.00,   0.00, 1014.9,   75.1, -999.0
13-05-2022, 00:12:01,    231,    0.0,    9.1,   0.00,   0.00, 1014.9,   75.1, -999.0
13-05-2022, 00:12:11,    231,    0.4,    9.1,   0.00,   0.00, 1015.0,   75.5, -999.0
13-05-2022, 00:12:20,    231,    0.0,    9.0,   0.00,   0.00, 1014.9,   75.1, -999.0
13-05-2022, 00:12:30,    231,    0.0,    9.0,   0.00,   0.00, 1014.9,   75.1, -999.0
13-05-2022, 00:12:40,    231,    0.0,    9.1,   0.00,   0.00, 1014.9,   75.2, -999.0
13-05-2022, 00:12:50,    231,    0.0,    9.1,   0.00,   0.00, 1014.9,   75.1, -999.0
13-05-2022, 00:13:00,    231,    0.0,    9.1,   0.00,   0.00, 1014.9,   75.1, -999.0
13-05-2022, 00:13:10,    231,    0.0,    9.1,   0.00,   0.00, 1014.9,   75.2, -999.0
13-05-2022, 00:13:20,    232,    0.3,    9.1,   0.00,   0.00, 1014.9,   75.3, -999.0
13-05-2022, 00:13:30,    234,    1.6,    9.1,   0.00,   0.00, 1015.0,   75.5, -999.0
13-05-2022, 00:13:40,    235,    1.4,    9.1,   0.00,   0.00, 1015.0,   75.4, -999.0
13-05-2022, 00:13:50,    234,    0.2,    9.1,   0.00,   0.00, 1014.9,   75.3, -999.0
13-05-2022, 00:14:00,    235,    0.0,    9.1,   0.00,   0.00, 1014.8,   75.1, -999.0
13-05-2022, 00:14:10,    234,    0.0,    9.0,   0.00,   0.00, 1014.8,   75.1, -999.0
13-05-2022, 00:14:20,    193,    0.0,    9.1,   0.00,   0.00, 1014.9,   75.3, -999.0
13-05-2022, 00:14:30,    193,    0.0,    9.1,   0.00,   0.00, 1014.8,   75.3, -999.0
13-05-2022, 00:14:40,    195,    0.0,    9.1,   0.00,   0.00, 1014.8,   75.2, -999.0
13-05-2022, 00:14:50,    203,    0.0,    9.1,   0.00,   0.00, 1014.8,   75.4, -999.0
13-05-2022, 00:14:59,    241,    0.0,    9.1,   0.00,   0.00, 1014.8,   75.2, -999.0
13-05-2022, 00:15:10,    240,    0.0,    9.1,   0.00,   0.00, 1014.8,   75.2, -999.0
13-05-2022, 00:15:20,    240,    0.1,    9.1,   0.00,   0.00, 1014.8,   75.4, -999.0
13-05-2022, 00:15:29,    240,    0.8,    9.2,   0.00,   0.00, 1014.9,   75.6, -999.0
13-05-2022, 00:15:39,    231,    0.3,    9.1,   0.00,   0.00, 1014.9,   75.6, -999.0
13-05-2022, 00:15:50,    218,    0.6,    9.1,   0.00,   0.00, 1014.9,   75.5, -999.0
13-05-2022, 00:15:59,    219,    0.1,    9.1,   0.00,   0.00, 1014.8,   75.5, -999.0
13-05-2022, 00:16:09,    218,    0.0,    9.1,   0.00,   0.00, 1014.8,   75.4, -999.0
13-05-2022, 00:16:19,    218,    0.0,    9.0,   0.00,   0.00, 1014.7,   75.2, -999.0
13-05-2022, 00:16:29,    207,    0.1,    9.0,   0.00,   0.00, 1014.8,   75.5, -999.0
13-05-2022, 00:16:39,    207,    0.0,    9.0,   0.00,   0.00, 1014.7,   75.2, -999.0
13-05-2022, 00:16:49,    210,    0.1,    9.0,   0.00,   0.00, 1014.8,   75.4, -999.0
13-05-2022, 00:16:59,    210,    0.2,    9.0,   0.00,   0.00, 1014.8,   75.4, -999.0
13-05-2022, 00:17:09,    209,    0.0,    9.0,   0.00,   0.00, 1014.7,   75.2, -999.0
13-05-2022, 00:17:19,    210,    0.0,    9.0,   0.00,   0.00, 1014.7,   75.3, -999.0
13-05-2022, 00:17:29,    210,    0.0,    9.0,   0.00,   0.00, 1014.8,   75.4, -999.0
13-05-2022, 00:17:39,    208,    0.0,    9.1,   0.00,   0.00, 1014.8,   75.2, -999.0
13-05-2022, 00:17:49,    208,    0.0,    9.0,   0.00,   0.00, 1014.8,   75.3, -999.0
13-05-2022, 00:17:59,    207,    0.0,    9.1,   0.00,   0.00, 1014.8,   75.3, -999.0
13-05-2022, 00:18:08,    253,    0.4,    9.1,   0.00,   0.00, 1014.9,   75.7, -999.0
13-05-2022, 00:18:19,    255,    0.6,    9.1,   0.00,   0.00, 1014.9,   75.8, -999.0
13-05-2022, 00:18:29,    254,    0.1,    9.1,   0.00,   0.00, 1014.8,   75.5, -999.0
13-05-2022, 00:18:38,    232,    0.0,    9.0,   0.00,   0.00, 1014.7,   75.3, -999.0
13-05-2022, 00:18:49,    226,    0.2,    9.0,   0.00,   0.00, 1014.9,   75.6, -999.0
13-05-2022, 00:18:59,    226,    0.1,    9.0,   0.00,   0.00, 1014.8,   75.6, -999.0
13-05-2022, 00:19:08,    200,    0.2,    9.0,   0.00,   0.00, 1014.8,   75.5, -999.0
13-05-2022, 00:19:18,    200,    0.1,    9.1,   0.00,   0.00, 1014.8,   75.6, -999.0
13-05-2022, 00:19:29,    204,    0.1,    9.1,   0.00,   0.00, 1014.8,   75.7, -999.0
13-05-2022, 00:19:38,    204,    0.0,    9.0,   0.00,   0.00, 1014.7,   75.5, -999.0
13-05-2022, 00:19:48,    203,    0.0,    8.9,   0.00,   0.00, 1014.7,   75.5, -999.0
13-05-2022, 00:19:58,    203,    0.0,    9.0,   0.00,   0.00, 1014.8,   75.5, -999.0
13-05-2022, 00:20:08,    205,    0.7,    9.1,   0.00,   0.00, 1014.9,   75.9, -999.0
13-05-2022, 00:20:18,    205,    0.4,    9.1,   0.00,   0.00, 1014.8,   75.8, -999.0
13-05-2022, 00:20:28,    205,    0.0,    9.0,   0.00,   0.00, 1014.7,   75.5, -999.0
13-05-2022, 00:20:38,    205,    0.0,    9.0,   0.00,   0.00, 1014.8,   75.5, -999.0
13-05-2022, 00:20:48,    205,    0.0,    9.1,   0.00,   0.00, 1014.7,   75.5, -999.0
13-05-2022, 00:20:58,    205,    0.0,    9.1,   0.00,   0.00, 1014.7,   75.6, -999.0
13-05-2022, 00:21:08,    205,    0.0,    9.1,   0.00,   0.00, 1014.7,   75.7, -999.0
13-05-2022, 00:21:18,    205,    0.2,    9.1,   0.00,   0.00, 1014.8,   75.8, -999.0
13-05-2022, 00:21:28,    201,    0.2,    9.2,   0.00,   0.00, 1014.8,   75.9, -999.0
13-05-2022, 00:21:38,    205,    1.0,    9.2,   0.00,   0.00, 1014.9,   75.9, -999.0
13-05-2022, 00:21:47,    205,    0.1,    9.2,   0.00,   0.00, 1014.8,   75.6, -999.0
13-05-2022, 00:21:58,    206,    0.0,    9.1,   0.00,   0.00, 1014.7,   75.4, -999.0
13-05-2022, 00:22:08,    223,    1.4,    9.1,   0.00,   0.00, 1014.8,   75.6, -999.0
13-05-2022, 00:22:17,    228,    2.2,    9.1,   0.00,   0.00, 1014.9,   75.7, -999.0
13-05-2022, 00:22:27,    245,    1.6,    9.2,   0.00,   0.00, 1014.9,   75.6, -999.0
13-05-2022, 00:22:39,    245,    0.2,    9.1,   0.00,   0.00, 1014.8,   75.4, -999.0
13-05-2022, 00:22:47,    228,    0.1,    9.0,   0.00,   0.00, 1014.8,   75.4, -999.0
13-05-2022, 00:22:57,    227,    0.2,    9.1,   0.00,   0.00, 1014.8,   75.6, -999.0
13-05-2022, 00:23:07,    227,    0.4,    9.1,   0.00,   0.00, 1014.9,   75.6, -999.0
13-05-2022, 00:23:17,    227,    0.1,    9.1,   0.00,   0.00, 1014.8,   75.5, -999.0
13-05-2022, 00:23:27,    225,    0.0,    9.0,   0.00,   0.00, 1014.7,   75.2, -999.0
13-05-2022, 00:23:37,    227,    0.0,    9.0,   0.00,   0.00, 1014.8,   75.4, -999.0
13-05-2022, 00:23:47,    227,    0.0,    9.0,   0.00,   0.00, 1014.7,   75.4, -999.0
13-05-2022, 00:23:57,    227,    0.2,    9.0,   0.00,   0.00, 1014.9,   75.5, -999.0
13-05-2022, 00:24:07,    237,    0.1,    9.1,   0.00,   0.00, 1014.8,   75.4, -999.0
13-05-2022, 00:24:17,    235,    2.2,    9.1,   0.00,   0.00, 1014.9,   75.6, -999.0
13-05-2022, 00:24:27,    246,    2.2,    9.1,   0.00,   0.00, 1014.9,   75.7, -999.0
13-05-2022, 00:24:37,    197,    2.4,    9.1,   0.00,   0.00, 1014.9,   75.7, -999.0
13-05-2022, 00:24:47,    197,    0.1,    9.0,   0.00,   0.00, 1014.8,   75.5, -999.0
13-05-2022, 00:24:57,    198,    0.0,    9.0,   0.00,   0.00, 1014.8,   75.4, -999.0
13-05-2022, 00:25:07,    195,    1.4,    9.1,   0.00,   0.00, 1014.9,   75.8, -999.0
13-05-2022, 00:25:16,    234,    1.0,    9.1,   0.00,   0.00, 1014.9,   75.8, -999.0
13-05-2022, 00:25:27,    211,    2.8,    9.1,   0.00,   0.00, 1014.9,   75.8, -999.0
13-05-2022, 00:25:37,    197,    2.5,    9.1,   0.00,   0.00, 1014.9,   75.9, -999.0
13-05-2022, 00:25:46,    198,    0.4,    9.1,   0.00,   0.00, 1014.9,   75.7, -999.0
13-05-2022, 00:25:56,    198,    0.0,    9.1,   0.00,   0.00, 1014.9,   75.5, -999.0
13-05-2022, 00:26:07,    198,    0.0,    9.0,   0.00,   0.00, 1014.8,   75.3, -999.0
13-05-2022, 00:26:16,    199,    0.0,    9.0,   0.00,   0.00, 1014.9,   75.3, -999.0
13-05-2022, 00:26:26,    201,    0.1,    9.1,   0.00,   0.00, 1014.9,   75.5, -999.0
13-05-2022, 00:26:36,    204,    0.8,    9.1,   0.00,   0.00, 1015.0,   75.6, -999.0
13-05-2022, 00:26:46,    205,    0.3,    9.1,   0.00,   0.00, 1015.0,   75.7, -999.0
13-05-2022, 00:26:56,    205,    0.0,    9.0,   0.00,   0.00, 1014.9,   75.4, -999.0
13-05-2022, 00:27:06,    205,    0.0,    9.0,   0.00,   0.00, 1014.9,   75.3, -999.0
13-05-2022, 00:27:16,    204,    0.0,    9.0,   0.00,   0.00, 1014.8,   75.4, -999.0
13-05-2022, 00:27:26,    204,    0.0,    9.0,   0.00,   0.00, 1014.9,   75.3, -999.0
13-05-2022, 00:27:36,    205,    0.0,    9.0,   0.00,   0.00, 1014.9,   75.2, -999.0
13-05-2022, 00:27:46,    204,    0.0,    9.0,   0.00,   0.00, 1014.9,   75.4, -999.0
13-05-2022, 00:27:56,    205,    0.0,    9.1,   0.00,   0.00, 1014.9,   75.5, -999.0
13-05-2022, 00:28:06,    204,    0.0,    9.0,   0.00,   0.00, 1014.9,   75.3, -999.0
13-05-2022, 00:28:16,    204,    0.0,    9.0,   0.00,   0.00, 1014.9,   75.3, -999.0
13-05-2022, 00:28:25,    204,    0.0,    9.0,   0.00,   0.00, 1014.9,   75.4, -999.0
13-05-2022, 00:28:36,    204,    0.0,    9.0,   0.00,   0.00, 1014.9,   75.3, -999.0
13-05-2022, 00:28:46,    204,    0.0,    9.0,   0.00,   0.00, 1014.9,   75.3, -999.0
13-05-2022, 00:28:55,    205,    0.0,    9.0,   0.00,   0.00, 1014.9,   75.4, -999.0
13-05-2022, 00:29:05,    204,    0.5,    9.1,   0.00,   0.00, 1015.0,   75.6, -999.0
13-05-2022, 00:29:16,    204,    0.0,    9.0,   0.00,   0.00, 1014.9,   75.4, -999.0
13-05-2022, 00:29:25,    204,    0.0,    9.0,   0.00,   0.00, 1014.9,   75.3, -999.0
13-05-2022, 00:29:35,    204,    0.0,    9.0,   0.00,   0.00, 1014.9,   75.4, -999.0
13-05-2022, 00:29:45,    204,    0.0,    9.0,   0.00,   0.00, 1014.9,   75.4, -999.0
13-05-2022, 00:29:55,    204,    0.0,    9.0,   0.00,   0.00, 1014.9,   75.3, -999.0
13-05-2022, 00:30:05,    204,    0.0,    9.0,   0.00,   0.00, 1014.9,   75.4, -999.0
13-05-2022, 00:30:15,    206,    0.3,    9.0,   0.00,   0.00, 1015.0,   75.7, -999.0
13-05-2022, 00:30:25,    206,    0.4,    9.1,   0.00,   0.00, 1015.0,   75.8, -999.0
13-05-2022, 00:30:35,    205,    0.1,    9.1,   0.00,   0.00, 1014.9,   75.5, -999.0
13-05-2022, 00:30:45,    206,    0.0,    9.0,   0.00,   0.00, 1014.9,   75.4, -999.0
13-05-2022, 00:30:55,    206,    0.0,    9.0,   0.00,   0.00, 1014.8,   75.2, -999.0
13-05-2022, 00:31:05,    205,    0.0,    9.0,   0.00,   0.00, 1014.9,   75.3, -999.0
13-05-2022, 00:31:15,    205,    0.0,    9.0,   0.00,   0.00, 1014.8,   75.3, -999.0
13-05-2022, 00:31:25,    205,    0.0,    9.1,   0.00,   0.00, 1014.9,   75.4, -999.0
13-05-2022, 00:31:34,    205,    0.0,    9.1,   0.00,   0.00, 1014.9,   75.4, -999.0
13-05-2022, 00:31:45,    205,    0.0,    9.0,   0.00,   0.00, 1014.8,   75.3, -999.0
13-05-2022, 00:31:55,    205,    0.0,    9.0,   0.00,   0.00, 1014.8,   75.4, -999.0
13-05-2022, 00:32:04,    205,    0.0,    9.0,   0.00,   0.00, 1014.8,   75.3, -999.0
13-05-2022, 00:32:15,    206,    0.0,    9.0,   0.00,   0.00, 1014.8,   75.3, -999.0
13-05-2022, 00:32:25,    210,    0.0,    9.0,   0.00,   0.00, 1014.8,   75.3, -999.0
13-05-2022, 00:32:34,    205,    0.0,    9.0,   0.00,   0.00, 1014.8,   75.3, -999.0
13-05-2022, 00:32:44,    205,    0.0,    9.0,   0.00,   0.00, 1014.9,   75.2, -999.0
13-05-2022, 00:32:55,    206,    0.0,    9.0,   0.00,   0.00, 1014.9,   75.3, -999.0
13-05-2022, 00:33:04,    205,    0.0,    9.0,   0.00,   0.00, 1014.8,   75.4, -999.0
13-05-2022, 00:33:14,    205,    0.0,    9.0,   0.00,   0.00, 1014.8,   75.3, -999.0
13-05-2022, 00:33:24,    205,    0.0,    9.1,   0.00,   0.00, 1014.8,   75.4, -999.0
13-05-2022, 00:33:34,    205,    0.0,    9.0,   0.00,   0.00, 1014.8,   75.4, -999.0
13-05-2022, 00:33:44,    205,    0.0,    9.0,   0.00,   0.00, 1014.8,   75.2, -999.0
13-05-2022, 00:33:54,    206,    0.0,    9.0,   0.00,   0.00, 1014.8,   75.3, -999.0
13-05-2022, 00:34:04,    205,    0.0,    9.0,   0.00,   0.00, 1014.8,   75.4, -999.0
13-05-2022, 00:34:14,    205,    0.0,    9.0,   0.00,   0.00, 1014.8,   75.4, -999.0
13-05-2022, 00:34:24,    205,    0.0,    9.0,   0.00,   0.00, 1014.8,   75.3, -999.0
13-05-2022, 00:34:34,    205,    0.0,    9.0,   0.00,   0.00, 1014.8,   75.4, -999.0
13-05-2022, 00:34:44,    206,    0.0,    9.0,   0.00,   0.00, 1014.8,   75.5, -999.0
13-05-2022, 00:34:54,    205,    0.0,    8.9,   0.00,   0.00, 1014.7,   75.5, -999.0
13-05-2022, 00:35:04,    206,    0.0,    9.0,   0.00,   0.00, 1014.7,   75.5, -999.0
13-05-2022, 00:35:14,    205,    0.0,    9.1,   0.00,   0.00, 1014.8,   75.4, -999.0
13-05-2022, 00:35:24,    205,    0.0,    9.1,   0.00,   0.00, 1014.8,   75.3, -999.0
13-05-2022, 00:35:34,    205,    0.1,    9.0,   0.00,   0.00, 1014.8,   75.4, -999.0
13-05-2022, 00:35:43,    204,    0.0,    9.0,   0.00,   0.00, 1014.8,   75.3, -999.0
13-05-2022, 00:35:53,    206,    0.3,    8.9,   0.00,   0.00, 1014.8,   75.4, -999.0
13-05-2022, 00:36:04,    207,    0.7,    9.1,   0.00,   0.00, 1014.9,   75.6, -999.0
13-05-2022, 00:36:13,    206,    0.4,    8.9,   0.00,   0.00, 1014.9,   75.7, -999.0
13-05-2022, 00:36:23,    206,    0.0,    9.0,   0.00,   0.00, 1014.8,   75.4, -999.0
13-05-2022, 00:36:33,    205,    0.0,    8.9,   0.00,   0.00, 1014.8,   75.4, -999.0
13-05-2022, 00:36:43,    206,    0.0,    9.0,   0.00,   0.00, 1014.8,   75.4, -999.0
13-05-2022, 00:36:53,    206,    0.0,    8.9,   0.00,   0.00, 1014.8,   75.3, -999.0
13-05-2022, 00:37:03,    206,    0.0,    8.9,   0.00,   0.00, 1014.8,   75.5, -999.0
13-05-2022, 00:37:13,    206,    0.2,    9.0,   0.00,   0.00, 1014.9,   75.7, -999.0
13-05-2022, 00:37:23,    207,    0.3,    9.0,   0.00,   0.00, 1014.9,   75.7, -999.0
13-05-2022, 00:37:33,    206,    0.3,    8.9,   0.00,   0.00, 1014.9,   75.6, -999.0
13-05-2022, 00:37:43,    206,    0.1,    8.9,   0.00,   0.00, 1014.9,   75.7, -999.0
13-05-2022, 00:37:53,    207,    0.6,    9.1,   0.00,   0.00, 1014.9,   75.8, -999.0
13-05-2022, 00:38:03,    207,    0.0,    9.0,   0.00,   0.00, 1014.8,   75.5, -999.0
13-05-2022, 00:38:13,    202,    0.0,    8.9,   0.00,   0.00, 1014.8,   75.5, -999.0
13-05-2022, 00:38:23,    203,    0.0,    8.9,   0.00,   0.00, 1014.8,   75.6, -999.0
13-05-2022, 00:38:33,    203,    0.4,    9.0,   0.00,   0.00, 1014.9,   75.9, -999.0
13-05-2022, 00:38:43,    203,    0.1,    9.1,   0.00,   0.00, 1014.8,   75.8, -999.0
13-05-2022, 00:38:53,    203,    0.0,    8.9,   0.00,   0.00, 1014.7,   75.5, -999.0
13-05-2022, 00:39:02,    203,    0.0,    9.0,   0.00,   0.00, 1014.7,   75.5, -999.0
13-05-2022, 00:39:13,    203,    0.0,    9.0,   0.00,   0.00, 1014.7,   75.5, -999.0
13-05-2022, 00:39:22,    203,    0.0,    8.9,   0.00,   0.00, 1014.7,   75.5, -999.0
13-05-2022, 00:39:32,    204,    0.3,    9.0,   0.00,   0.00, 1014.8,   75.7, -999.0
13-05-2022, 00:39:42,    204,    0.2,    9.0,   0.00,   0.00, 1014.8,   75.6, -999.0
13-05-2022, 00:39:52,    204,    0.1,    9.1,   0.00,   0.00, 1014.8,   75.7, -999.0
13-05-2022, 00:40:02,    205,    0.2,    9.0,   0.00,   0.00, 1014.8,   75.7, -999.0
13-05-2022, 00:40:12,    206,    0.1,    9.0,   0.00,   0.00, 1014.8,   75.6, -999.0
13-05-2022, 00:40:22,    205,    0.0,    9.0,   0.00,   0.00, 1014.7,   75.5, -999.0
13-05-2022, 00:40:32,    206,    0.0,    8.8,   0.00,   0.00, 1014.7,   75.5, -999.0
13-05-2022, 00:40:42,    206,    0.0,    9.0,   0.00,   0.00, 1014.7,   75.5, -999.0
13-05-2022, 00:40:52,    206,    0.0,    9.0,   0.00,   0.00, 1014.7,   75.5, -999.0
13-05-2022, 00:41:02,    208,    0.4,    9.1,   0.00,   0.00, 1014.8,   75.8, -999.0
13-05-2022, 00:41:12,    207,    0.1,    9.0,   0.00,   0.00, 1014.7,   75.6, -999.0
13-05-2022, 00:41:22,    207,    0.0,    9.0,   0.00,   0.00, 1014.7,   75.5, -999.0
13-05-2022, 00:41:32,    211,    0.3,    8.9,   0.00,   0.00, 1014.8,   75.7, -999.0
13-05-2022, 00:41:42,    207,    0.7,    9.1,   0.00,   0.00, 1014.8,   75.9, -999.0
13-05-2022, 00:41:52,    206,    1.0,    9.1,   0.00,   0.00, 1014.8,   75.9, -999.0
13-05-2022, 00:42:02,    215,    2.3,    9.0,   0.00,   0.00, 1014.8,   75.8, -999.0
13-05-2022, 00:42:11,    190,    2.9,    9.1,   0.00,   0.00, 1014.9,   75.8, -999.0
13-05-2022, 00:42:22,    191,    0.3,    9.0,   0.00,   0.00, 1014.7,   75.7, -999.0
13-05-2022, 00:42:31,    190,    0.0,    8.9,   0.00,   0.00, 1014.7,   75.5, -999.0
13-05-2022, 00:42:41,    190,    0.0,    8.9,   0.00,   0.00, 1014.7,   75.5, -999.0
13-05-2022, 00:42:52,    190,    0.0,    8.9,   0.00,   0.00, 1014.7,   75.5, -999.0
13-05-2022, 00:43:01,    190,    0.0,    9.0,   0.00,   0.00, 1014.7,   75.4, -999.0
13-05-2022, 00:43:11,    199,    0.2,    9.0,   0.00,   0.00, 1014.7,   75.6, -999.0
13-05-2022, 00:43:21,    199,    0.8,    9.0,   0.00,   0.00, 1014.8,   75.8, -999.0
13-05-2022, 00:43:31,    198,    0.4,    9.0,   0.00,   0.00, 1014.8,   75.7, -999.0
13-05-2022, 00:43:41,    198,    0.2,    9.0,   0.00,   0.00, 1014.8,   75.5, -999.0
13-05-2022, 00:43:51,    198,    0.0,    8.8,   0.00,   0.00, 1014.7,   75.4, -999.0
13-05-2022, 00:44:01,    199,    0.1,    8.9,   0.00,   0.00, 1014.8,   75.5, -999.0
13-05-2022, 00:44:11,    205,    0.3,    8.9,   0.00,   0.00, 1014.8,   75.6, -999.0
13-05-2022, 00:44:21,    206,    0.3,    9.0,   0.00,   0.00, 1014.8,   75.7, -999.0
13-05-2022, 00:44:31,    207,    0.0,    8.9,   0.00,   0.00, 1014.8,   75.5, -999.0
13-05-2022, 00:44:41,    214,    1.5,    9.0,   0.00,   0.00, 1014.9,   75.9, -999.0
13-05-2022, 00:44:51,    214,    1.8,    9.0,   0.00,   0.00, 1014.9,   75.9, -999.0
13-05-2022, 00:45:01,    213,    0.2,    9.0,   0.00,   0.00, 1014.8,   75.7, -999.0
13-05-2022, 00:45:11,    213,    0.0,    8.9,   0.00,   0.00, 1014.7,   75.5, -999.0
13-05-2022, 00:45:21,    213,    0.0,    8.9,   0.00,   0.00, 1014.7,   75.5, -999.0
13-05-2022, 00:45:31,    213,    0.0,    8.9,   0.00,   0.00, 1014.7,   75.5, -999.0
13-05-2022, 00:45:40,    213,    0.0,    8.9,   0.00,   0.00, 1014.7,   75.6, -999.0
13-05-2022, 00:45:50,    213,    0.0,    8.9,   0.00,   0.00, 1014.7,   75.5, -999.0
13-05-2022, 00:46:01,    214,    0.0,    8.9,   0.00,   0.00, 1014.7,   75.5, -999.0
13-05-2022, 00:46:10,    214,    0.0,    8.9,   0.00,   0.00, 1014.7,   75.4, -999.0
13-05-2022, 00:46:20,    213,    0.0,    8.9,   0.00,   0.00, 1014.8,   75.6, -999.0
13-05-2022, 00:46:30,    213,    0.0,    8.9,   0.00,   0.00, 1014.7,   75.5, -999.0
13-05-2022, 00:46:40,    213,    0.0,    8.9,   0.00,   0.00, 1014.7,   75.5, -999.0